Location: Pine Mountain Observatory
(43.7910°N, 120.9377°W)
Time: 22:26:56
(UTC-07:00)

Cosmos 1867 - Visible Passes

Search period start: 24 September 2016 00:00
Search period end: 04 October 2016 00:00
Orbit: 774 x 802 km, 65.0° (Epoch: 23 September)

Date Brightness Start Highest point End Pass type
(mag) Time Alt. Az. Time Alt. Az. Time Alt. Az.
24 Sep 4.1 19:31:29 10° SW 19:36:54 63° NW 19:42:22 10° NNE visible
24 Sep 6.3 21:18:17 10° WNW 21:21:36 16° NNW 21:24:56 10° N visible
25 Sep 6.1 20:45:47 10° W 20:49:40 19° NW 20:53:34 10° N visible
26 Sep 5.8 20:13:26 10° W 20:17:46 23° NW 20:22:08 10° NNE visible
27 Sep 5.5 19:41:12 10° WSW 19:45:55 29° NW 19:50:39 10° NNE visible
28 Sep 5.2 19:09:05 10° WSW 19:14:06 36° NW 19:19:09 10° NNE visible
28 Sep 6.4 20:57:51 10° NW 20:59:23 11° NNW 21:00:54 10° N visible
29 Sep 6.2 20:24:52 10° NW 20:27:21 13° NNW 20:29:50 10° N visible
30 Sep 6.1 19:52:11 10° WNW 19:55:22 15° NNW 19:58:33 10° N visible
01 Oct 6.0 19:19:39 10° WNW 19:23:25 18° NW 19:27:11 10° N visible
